When you browse on this site, cookies collect data to enhance your experience and personalize the content and advertising you see.
Visit our Privacy Policy to learn more. By continuing to use the site, you agree to this use of cookies and data.
  • Em Portugal
  • Lista de países
  • Para 7 dias
  • Temperatura da água
  • Mapa do tempo
  • Widgets de tempo
  • user-avatar
    Iniciar Sessão

    Previsão horária em Silkhet

    Hoje, 4 Junho, Quinta-feira

    Tempo Temperatura Precipitação Vento Pressão Humidade
    00:00 +27°C° 0 mm 1 m/s 754 mmHg 91%
    01:00 +27°C° 0.7 mm 1 m/s 753 mmHg 91%
    02:00 +27°C° 0.7 mm 2 m/s 753 mmHg 92%
    03:00 +26°C° 0.7 mm 2 m/s 752 mmHg 93%
    04:00 +26°C° 1.2 mm 2 m/s 752 mmHg 93%
    05:00 +26°C° 1.2 mm 2 m/s 753 mmHg 93%
    06:00 +27°C° 0 mm 1 m/s 753 mmHg 96%
    07:00 +28°C° 1.6 mm 1 m/s 753 mmHg 90%
    08:00 +29°C° 1.6 mm 1 m/s 753 mmHg 85%
    09:00 +31°C° 1.6 mm 1 m/s 754 mmHg 80%
    10:00 +32°C° 1.3 mm 2 m/s 753 mmHg 75%
    11:00 +34°C° 1.3 mm 2 m/s 753 mmHg 69%
    12:00 +35°C° 1.3 mm 2 m/s 753 mmHg 64%
    13:00 +35°C° 2 mm 2 m/s 752 mmHg 65%
    14:00 +34°C° 2 mm 1 m/s 752 mmHg 65%
    15:00 +34°C° 2 mm 1 m/s 751 mmHg 66%
    16:00 +32°C° 2.9 mm 2 m/s 751 mmHg 73%
    17:00 +31°C° 2.9 mm 2 m/s 751 mmHg 80%
    18:00 +29°C° 2.9 mm 3 m/s 751 mmHg 87%
    19:00 +29°C° 1.3 mm 3 m/s 752 mmHg 88%
    20:00 +28°C° 1.3 mm 3 m/s 753 mmHg 90%
    21:00 +27°C° 1.3 mm 3 m/s 754 mmHg 91%
    22:00 +27°C° 0.2 mm 2 m/s 754 mmHg 92%
    23:00 +27°C° 0.2 mm 2 m/s 753 mmHg 93%

    Amanhã, 5 Junho, Sexta-feira

    Tempo Temperatura Precipitação Vento Pressão Humidade
    00:00 +27°C° 0.2 mm 1 m/s 753 mmHg 94%
    01:00 +27°C° 0 mm 2 m/s 753 mmHg 94%
    02:00 +26°C° 0 mm 2 m/s 753 mmHg 95%
    03:00 +26°C° 0 mm 3 m/s 753 mmHg 95%
    04:00 +27°C° 0.2 mm 3 m/s 753 mmHg 95%
    05:00 +27°C° 0.2 mm 3 m/s 753 mmHg 94%
    06:00 +27°C° 0.2 mm 2 m/s 753 mmHg 93%
    07:00 +28°C° 0.5 mm 2 m/s 753 mmHg 89%
    08:00 +29°C° 0.5 mm 2 m/s 754 mmHg 84%
    09:00 +31°C° 0.5 mm 2 m/s 754 mmHg 80%
    10:00 +31°C° 1.9 mm 2 m/s 754 mmHg 77%
    11:00 +32°C° 1.9 mm 2 m/s 753 mmHg 74%
    12:00 +32°C° 1.9 mm 1 m/s 753 mmHg 72%
    13:00 +34°C° 0.1 mm 2 m/s 752 mmHg 71%
    14:00 +34°C° 0.1 mm 2 m/s 752 mmHg 70%
    15:00 +34°C° 0.1 mm 2 m/s 751 mmHg 69%
    16:00 +32°C° 0.3 mm 2 m/s 751 mmHg 72%
    17:00 +32°C° 0.3 mm 2 m/s 751 mmHg 76%
    18:00 +31°C° 0.3 mm 2 m/s 750 mmHg 80%
    19:00 +30°C° 1.3 mm 2 m/s 751 mmHg 83%
    20:00 +29°C° 1.3 mm 2 m/s 752 mmHg 86%
    21:00 +29°C° 1.3 mm 2 m/s 752 mmHg 89%
    22:00 +29°C° 0.7 mm 2 m/s 752 mmHg 89%
    23:00 +28°C° 0.7 mm 2 m/s 752 mmHg 90%

    Depois de amanhã, 6 Junho, Sábado

    Tempo Temperatura Precipitação Vento Pressão Humidade
    00:00 +28°C° 0.7 mm 2 m/s 752 mmHg 91%
    01:00 +28°C° 1.7 mm 2 m/s 752 mmHg 92%
    02:00 +28°C° 1.7 mm 2 m/s 751 mmHg 93%
    03:00 +27°C° 1.7 mm 2 m/s 751 mmHg 94%
    04:00 +28°C° 1.8 mm 2 m/s 751 mmHg 93%
    05:00 +28°C° 1.8 mm 2 m/s 752 mmHg 92%
    06:00 +28°C° 1.8 mm 2 m/s 752 mmHg 91%
    07:00 +29°C° 1.2 mm 3 m/s 752 mmHg 86%
    08:00 +31°C° 1.2 mm 3 m/s 752 mmHg 80%
    09:00 +33°C° 1.2 mm 3 m/s 753 mmHg 74%
    10:00 +34°C° 0.4 mm 3 m/s 752 mmHg 69%
    11:00 +35°C° 0.4 mm 3 m/s 752 mmHg 64%
    12:00 +36°C° 0.4 mm 3 m/s 751 mmHg 59%
    13:00 +36°C° 0.2 mm 3 m/s 751 mmHg 59%
    14:00 +36°C° 0.2 mm 3 m/s 750 mmHg 60%
    15:00 +36°C° 0.2 mm 3 m/s 750 mmHg 60%
    16:00 +35°C° 0.8 mm 3 m/s 749 mmHg 65%
    17:00 +35°C° 0.8 mm 2 m/s 749 mmHg 69%
    18:00 +34°C° 0.8 mm 2 m/s 749 mmHg 74%
    19:00 +32°C° 1.3 mm 2 m/s 750 mmHg 77%
    20:00 +31°C° 1.3 mm 2 m/s 751 mmHg 80%
    21:00 +29°C° 1.3 mm 2 m/s 751 mmHg 84%
    22:00 +29°C° 0 mm 2 m/s 751 mmHg 84%
    23:00 +29°C° 0 mm 2 m/s 751 mmHg 85%

    7 Junho, Domingo

    Tempo Temperatura Precipitação Vento Pressão Humidade
    00:00 +29°C° 0 mm 2 m/s 751 mmHg 86%
    01:00 +29°C° 0 mm 2 m/s 751 mmHg 87%
    02:00 +28°C° 0 mm 2 m/s 751 mmHg 87%
    03:00 +28°C° 0 mm 2 m/s 750 mmHg 88%
    04:00 +28°C° 0.1 mm 2 m/s 750 mmHg 88%
    05:00 +28°C° 0.1 mm 3 m/s 751 mmHg 88%
    06:00 +28°C° 0.1 mm 3 m/s 751 mmHg 88%
    07:00 +30°C° 0 mm 3 m/s 751 mmHg 81%
    08:00 +31°C° 0 mm 3 m/s 751 mmHg 75%
    09:00 +34°C° 0 mm 3 m/s 751 mmHg 69%
    10:00 +35°C° 0.3 mm 3 m/s 751 mmHg 64%
    11:00 +36°C° 0.3 mm 3 m/s 751 mmHg 60%
    12:00 +37°C° 0.3 mm 3 m/s 750 mmHg 55%
    13:00 +37°C° 1.6 mm 3 m/s 750 mmHg 57%
    14:00 +37°C° 1.6 mm 3 m/s 749 mmHg 59%
    15:00 +37°C° 1.6 mm 3 m/s 748 mmHg 60%
    16:00 +36°C° 0.4 mm 3 m/s 748 mmHg 65%
    17:00 +35°C° 0.4 mm 2 m/s 748 mmHg 69%
    18:00 +33°C° 0.4 mm 1 m/s 748 mmHg 73%
    19:00 +32°C° 0.3 mm 2 m/s 749 mmHg 75%
    20:00 +31°C° 0.3 mm 2 m/s 750 mmHg 77%
    21:00 +30°C° 0.3 mm 2 m/s 750 mmHg 78%
    22:00 +30°C° 0.2 mm 2 m/s 750 mmHg 79%
    23:00 +29°C° 0.2 mm 2 m/s 750 mmHg 80%

    8 Junho, Segunda-feira

    Tempo Temperatura Precipitação Vento Pressão Humidade
    00:00 +29°C° 0.2 mm 2 m/s 750 mmHg 81%
    01:00 +29°C° 0 mm 2 m/s 750 mmHg 83%
    02:00 +28°C° 0 mm 2 m/s 750 mmHg 85%
    03:00 +28°C° 0 mm 2 m/s 749 mmHg 87%
    04:00 +28°C° 0.5 mm 2 m/s 750 mmHg 87%
    05:00 +28°C° 0.5 mm 3 m/s 750 mmHg 87%
    06:00 +28°C° 0.5 mm 3 m/s 750 mmHg 87%
    07:00 +29°C° 0.2 mm 3 m/s 750 mmHg 82%
    08:00 +30°C° 0.2 mm 3 m/s 751 mmHg 78%
    09:00 +33°C° 0.2 mm 3 m/s 751 mmHg 73%
    10:00 +34°C° 0 mm 2 m/s 751 mmHg 66%
    11:00 +36°C° 0 mm 2 m/s 750 mmHg 60%
    12:00 +38°C° 0 mm 2 m/s 750 mmHg 53%
    13:00 +38°C° 0 mm 2 m/s 749 mmHg 53%
    14:00 +38°C° 0 mm 2 m/s 748 mmHg 53%
    15:00 +38°C° 0 mm 2 m/s 748 mmHg 53%
    16:00 +36°C° 0 mm 1 m/s 748 mmHg 56%
    17:00 +36°C° 0 mm 1 m/s 748 mmHg 59%
    18:00 +35°C° 0 mm 1 m/s 747 mmHg 62%
    19:00 +34°C° 0 mm 1 m/s 748 mmHg 66%
    20:00 +33°C° 0 mm 1 m/s 749 mmHg 69%
    21:00 +32°C° 0 mm 2 m/s 749 mmHg 73%
    22:00 +31°C° 0.4 mm 2 m/s 750 mmHg 77%
    23:00 +30°C° 0.4 mm 2 m/s 750 mmHg 80%

    9 Junho, Terça-feira

    Tempo Temperatura Precipitação Vento Pressão Humidade
    00:00 +29°C° 0.4 mm 2 m/s 750 mmHg 84%
    01:00 +29°C° 0 mm 1 m/s 750 mmHg 85%
    02:00 +29°C° 0 mm 1 m/s 749 mmHg 87%
    03:00 +28°C° 0 mm 1 m/s 749 mmHg 88%
    04:00 +29°C° 0 mm 1 m/s 749 mmHg 88%
    05:00 +29°C° 0 mm 1 m/s 749 mmHg 88%
    06:00 +29°C° 0 mm 2 m/s 750 mmHg 88%
    07:00 +30°C° 0 mm 2 m/s 750 mmHg 81%
    08:00 +32°C° 0 mm 2 m/s 750 mmHg 74%
    09:00 +34°C° 0 mm 1 m/s 750 mmHg 67%
    10:00 +35°C° 0 mm 1 m/s 750 mmHg 62%
    11:00 +36°C° 0 mm 1 m/s 749 mmHg 56%
    12:00 +39°C° 0 mm 1 m/s 749 mmHg 51%
    13:00 +39°C° 0 mm 1 m/s 748 mmHg 50%
    14:00 +39°C° 0 mm 1 m/s 748 mmHg 48%
    15:00 +40°C° 0 mm 1 m/s 747 mmHg 47%
    16:00 +39°C° 0 mm 1 m/s 747 mmHg 51%
    17:00 +37°C° 0 mm 1 m/s 747 mmHg 55%
    18:00 +36°C° 0 mm 1 m/s 747 mmHg 60%
    19:00 +35°C° 0 mm 1 m/s 747 mmHg 61%
    20:00 +34°C° 0 mm 1 m/s 748 mmHg 63%
    21:00 +33°C° 0 mm 1 m/s 749 mmHg 65%
    22:00 +32°C° 0.1 mm 1 m/s 749 mmHg 70%
    23:00 +31°C° 0.1 mm 2 m/s 749 mmHg 75%
    Mostrar mais